This is the latest recevied weather packets stored in our database for station/object KG4AGD. If no packets are shown the sender has not sent any weather packets the latest 1 day(s).
| Time | Temp. | Humidity | Pressure | Rain* | Wind** | Luminosity | Snow |
|---|---|---|---|---|---|---|---|
| 1778054193 | 15.56° C | 94% | 1015.9 hPa | 0 mm | 1.34 m/s, 196° | - | - |
| 1778053891 | 15.56° C | 94% | 1016.2 hPa | 0 mm | 0.89 m/s, 187° | - | - |
| 1778053589 | 15.56° C | 94% | 1016.2 hPa | 0 mm | 1.34 m/s, 198° | - | - |
| 1778053287 | 15.56° C | 94% | 1016.2 hPa | 0 mm | 2.68 m/s, 152° | - | - |
| 1778052985 | 15.56° C | 94% | 1016.2 hPa | 0 mm | 1.34 m/s, 182° | - | - |
| 1778052683 | 15.56° C | 94% | 1016.2 hPa | 0 mm | 0.89 m/s, 189° | - | - |
| 1778052381 | 15.56° C | 93% | 1016.2 hPa | 0 mm | 0 m/s | - | - |
| 1778052078 | 15.56° C | 93% | 1016.2 hPa | 0 mm | 0 m/s | - | - |
| 1778051776 | 15.56° C | 93% | 1016.2 hPa | 0 mm | 0.45 m/s, 196° | - | - |
| 1778051474 | 15.56° C | 92% | 1016.2 hPa | 0 mm | 2.24 m/s, 191° | - | - |
| 1778051172 | 15.56° C | 92% | 1015.9 hPa | 0 mm | 0.89 m/s, 178° | - | - |
| 1778050869 | 16.11° C | 92% | 1016.2 hPa | 0 mm | 1.79 m/s, 204° | - | - |
| 1778050567 | 16.11° C | 92% | 1016.2 hPa | 0 mm | 3.13 m/s, 189° | - | - |
| 1778050265 | 16.11° C | 91% | 1016.2 hPa | 0 mm | 0 m/s | - | - |
| 1778049962 | 16.11° C | 91% | 1016.2 hPa | 0 mm | 0 m/s | - | - |
| 1778049660 | 16.11° C | 91% | 1016.2 hPa | 0 mm | 1.79 m/s, 189° | - | - |
| 1778049358 | 16.11° C | 91% | 1016.2 hPa | 0 mm | 0.89 m/s, 175° | - | - |
| 1778049056 | 16.11° C | 90% | 1016.5 hPa | 0 mm | 0.45 m/s, 179° | - | - |
| 1778048754 | 16.11° C | 90% | 1016.5 hPa | 0 mm | 1.34 m/s, 187° | - | - |
| 1778048452 | 16.11° C | 90% | 1016.5 hPa | 0 mm | 1.79 m/s, 187° | - | - |
| 1778048149 | 16.11° C | 89% | 1016.5 hPa | 0 mm | 1.34 m/s, 180° | - | - |
| 1778047847 | 16.67° C | 89% | 1016.5 hPa | 0 mm | 2.24 m/s, 189° | - | - |
| 1778047545 | 16.67° C | 89% | 1016.5 hPa | 0 mm | 2.68 m/s, 192° | - | - |
| 1778047242 | 16.67° C | 88% | 1016.5 hPa | 0 mm | 2.24 m/s, 189° | - | - |
| 1778046940 | 16.67° C | 88% | 1016.5 hPa | 0 mm | 1.34 m/s, 174° | - | - |
* Rain since midnight (hover to see other rain measurements)
** Current wind speed in m/s (hover to see current wind gust speed)